Location: Breungeshain
(50.5000°N, 9.2000°E)
Time: 02:35:53
(UTC+00:00)

ISS - Pass Details

Date: 24 May 2018
Orbit: 402 x 407 km, 51.6° (Epoch: 26 May)

Event Time Altitude Azimuth Distance (km) Brightness Sun altitude
Rises 22:27:22 0° 276° (W) 2,320 0.3 -17.7°
Reaches altitude 10° 22:29:27 10° 279° (W) 1,460 -0.8 -17.7°
Maximum altitude 22:32:43 71° 4° (N) 430 -3.6 -17.8°
Enters shadow 22:35:42 12° 89° (E) 1,350 -1.3 -17.9°
